Location: Newark
(40.9833°N, 0.0333°W)
Time: 17:13:50
(UTC+00:00)

deb Explorer IX - Pass Details

Date: 03 November 2020
Orbit: 538 x 1104 km, 38.8° (Epoch: 22 November)

Event Time Altitude Azimuth Distance (km) Brightness Sun altitude
Rises 08:10:49 0° 278° (W) 3,512 ? 15.3°
Reaches altitude 10° 08:13:29 10° 269° (W) 2,654 ? 15.7°
Maximum altitude 08:19:15 34° 207° (SSW) 1,601 ? 16.5°
Drops below altitude 10° 08:25:34 10° 145° (SE) 2,911 ? 17.5°
Sets 08:28:38 0° 137° (SE) 3,895 ? 17.9°
